Flag for U.S.A. Weather past 2 weeks in Fort Bragg, California, U.S.A.

Now
70 °F

Clear.


Feels Like: 73 °F
Forecast: 61 / 65 °F
Wind: 3 mph from North

Location: Ukiah Municipal

Current Time: Sep 23, 2014 at 10:07:55 PM

Latest Report: Sep 23, 2014 at 8:56 PM


Visibility: 10 mi

Pressure: 29.92 "Hg

Humidity: 73%

Dew point: 61 °F

Location of Fort BraggLocation

Historic Weather in Fort Bragg — Graph

°F

Fort Bragg temperature yesterday

Maximum temperature yesterday: 88 °F (at 1:56 PM)
Minimum temperature yesterday: 54 °F (at 6:56 AM)
Average temperature yesterday: 69 °F

Past Weeks' High & Low Weather Summary

 TemperatureHumidityPressure
High101 °F (Sep 11, 3:56 PM)97% (Sep 18, 3:56 AM)30.02 "Hg (Sep 18, 3:56 AM)
Low49 °F (Sep 9, 5:56 AM)6% (Sep 9, 2:56 PM)29.67 "Hg (Sep 17, 4:56 PM)
Average71 °F51%29.86 "Hg
* Reported Sep 8 8:56 PM — Sep 23 8:56 PM, Fort Bragg, Weather by CustomWeather, © 2014

Note: Actual official high and low records may vary slightly from our data, if they occured in-between our weather recording intervals... More about our weather records

Advertising

Fort Bragg weather history for previous 24 hours

 ConditionsComfort  
Time TempWeatherWind HumidityBarometerVisibility
8:56 PM
Sep 23
70 °FClear.3 mph73%29.92 "Hg10 mi
7:56 PM72 °FSunny.7 mph68%29.90 "Hg10 mi
6:56 PM77 °FSunny.No wind58%29.87 "Hg10 mi
5:56 PM82 °FSunny.10 mph46%29.87 "Hg10 mi
4:56 PM84 °FSunny.9 mph40%29.86 "Hg10 mi
3:56 PM86 °FSunny.12 mph37%29.87 "Hg10 mi
2:56 PM85 °FPassing clouds.9 mph39%29.88 "Hg10 mi
1:56 PM84 °FSunny.7 mph40%29.91 "Hg10 mi
12:56 PM80 °FSunny.3 mph44%29.93 "Hg10 mi
11:56 AM77 °FSunny.5 mph47%29.96 "Hg10 mi
10:56 AM70 °FSunny.No wind55%29.98 "Hg10 mi
9:56 AM66 °FSunny.3 mph63%29.99 "Hg10 mi
8:56 AM60 °FSunny.3 mph72%29.99 "Hg10 mi
7:56 AM55 °FClear.No wind83%29.98 "Hg10 mi
6:56 AM53 °FClear.No wind86%29.98 "Hg10 mi
5:56 AM53 °FClear.No wind86%29.96 "Hg10 mi
4:56 AM55 °FClear.No wind83%29.96 "Hg10 mi
3:56 AM53 °FClear.3 mph89%29.96 "Hg10 mi
2:56 AM55 °FClear.No wind83%29.95 "Hg10 mi
1:56 AM57 °FClear.No wind81%29.95 "Hg10 mi
12:56 AM59 °FClear.No wind78%29.96 "Hg10 mi
11:56 PM
Sep 22
60 °FClear.No wind78%29.96 "Hg10 mi
10:56 PM61 °FClear.3 mph72%29.96 "Hg10 mi
Weather by CustomWeather, © 2014

See weather overviewHow to use our weather pages